Lid_Strength_Index
3 3 3 3 3 3 3 3 3 4 3 4 4 4 4 4 4 5 10 5 5 -1 -1 1 2 2 2 4 4 4 11 13 12 10 9 6 8 5 4 6 5 4 5 4 2
2 3 3 3 3 3 3 3 3 3 4 4 4 4 4 4 6 8 3 -1 -2 -1 2 3 4 3 6 6 6 8 12 11 8 7 8 7 7 7 7 7 7 6 4 3 3
3 3 3 3 3 3 3 3 3 3 3 4 4 4 4 4 7 7 -2 -3 -2 -2 1 2 3 4 7 6 7 8 11 8 7 6 6 7 7 6 7 9 7 7 6 4 4
3 3 3 3 3 3 4 3 3 3 3 4 4 4 4 5 10 2 -2 -2 -2 -0 1 3 4 7 8 9 6 9 7 7 7 6 6 7 6 7 6 7 5 4 4 4 4
3 3 3 4 4 4 3 4 3 3 3 3 3 4 6 10 9 -0 -1 -1 -0 1 3 4 6 7 9 8 7 8 8 7 6 6 6 6 7 7 7 5 4 4 4 5 4
3 3 3 4 4 4 4 3 3 3 3 3 3 4 8 12 1 -0 -0 2 3 4 3 3 5 5 7 8 8 7 7 7 6 7 6 7 7 6 6 5 5 5 5 5 4
3 3 3 4 4 4 4 4 3 3 3 2 2 4 9 10 0 0 0 2 3 3 3 2 3 5 6 8 5 7 9 8 7 7 7 6 9 9 6 5 6 5 5 5 4
3 3 4 4 4 4 4 4 4 3 2 2 1 5 13 6 0 1 1 2 1 1 3 3 2 5 6 5 7 9 9 13 9 8 7 8 13 8 5 6 7 6 5 4 4
3 3 4 4 4 3 4 3 3 3 2 1 5 7 14 3 5 3 1 3 2 2 3 2 3 6 6 10 11 10 14 13 11 7 8 9 12 7 5 6 7 6 6 5 5
3 4 4 4 3 4 4 4 3 3 2 1 1 7 8 8 6 5 5 2 4 4 5 5 7 9 10 11 15 13 13 12 12 9 8 10 10 8 6 6 7 6 6 6 5
3 3 4 4 4 4 6 7 9 7 5 10 9 8 5 7 5 6 3 3 4 6 10 7 11 13 10 10 9 10 11 12 10 8 10 11 10 9 7 7 7 7 7 7 6
3 3 4 4 4 5 7 7 7 4 7 5 6 4 4 6 9 7 2 6 7 10 8 9 13 9 8 8 9 10 12 11 10 9 10 10 11 8 7 7 6 6 6 6 5
4 3 4 5 4 6 6 6 4 6 9 7 6 7 7 6 9 9 4 5 7 9 9 11 9 7 8 9 10 11 12 12 12 10 9 11 12 11 8 7 6 6 5 5 5
4 4 4 5 7 7 6 7 5 6 12 9 9 7 6 7 10 6 4 5 7 9 9 9 7 8 9 10 10 13 9 9 11 13 15 10 18 13 10 9 7 6 6 5 5
5 5 4 6 8 7 5 7 7 8 15 8 9 6 8 7 7 7 3 5 8 8 9 9 9 9 10 9 8 10 8 10 11 13 13 13 16 13 11 11 9 7 6 5 5
5 6 6 6 8 7 7 7 8 11 15 10 9 10 10 10 9 8 6 5 6 8 10 9 8 8 8 7 7 7 10 10 11 13 18 15 16 15 13 11 9 7 6 5 5
6 7 7 5 8 6 7 7 11 14 8 12 13 11 11 11 10 9 10 10 11 12 13 10 10 8 7 9 8 9 12 17 18 18 18 14 16 14 10 8 8 7 6 5 5
7 9 8 6 7 7 7 9 15 10 10 8 12 12 11 10 10 11 12 12 9 10 13 14 13 9 7 9 11 11 12 15 17 20 18 14 17 13 8 8 7 6 6 5 5
7 9 9 7 6 7 9 12 12 10 8 9 12 13 13 11 11 12 11 11 9 9 12 14 13 9 8 7 8 10 13 10 15 16 17 16 13 10 8 9 8 7 7 7 6
8 7 6 6 6 8 10 13 11 8 7 9 13 12 14 13 12 13 12 10 9 7 10 11 14 11 8 8 8 10 8 14 14 18 19 17 16 15 11 10 9 9 8 7 6
6 6 5 6 7 8 11 11 8 7 7 9 10 11 12 11 12 13 12 10 7 8 9 12 12 12 10 11 10 10 12 12 12 14 18 19 17 11 10 9 9 8 7 6 6
7 10 5 6 9 10 11 9 9 8 6 8 8 10 10 9 11 11 12 10 8 9 10 10 12 14 11 10 9 9 11 13 15 15 15 15 15 8 8 8 8 8 7 6 5
9 8 4 6 11 11 9 8 8 8 8 8 9 9 9 10 11 10 9 6 6 9 9 9 12 14 13 12 11 11 11 12 13 13 16 16 15 8 8 8 7 8 7 6 5
7 9 7 7 9 9 10 9 9 6 7 7 8 8 9 10 10 10 10 7 6 7 6 7 13 13 14 13 11 12 10 11 11 15 15 14 13 10 9 9 8 7 7 6 6
7 9 9 11 9 10 9 9 9 9 7 7 8 8 9 12 10 10 10 8 7 5 8 10 12 13 12 10 10 10 10 10 12 11 14 12 13 10 9 9 8 7 6 6 6
8 10 8 9 9 10 10 9 9 8 8 8 9 8 9 10 9 11 10 10 10 8 11 11 12 11 12 10 10 10 10 9 10 11 12 11 12 9 8 7 8 7 7 7 6
9 9 7 9 9 9 10 9 8 7 7 6 7 8 8 7 7 7 8 9 8 10 10 11 12 13 14 11 11 13 11 10 11 10 11 13 11 9 9 8 8 7 7 7 6